Zurück zum Katalog

ARIANE 5 R/B

AktivGTO
NORAD 28886·ROCKET BODY·🇫🇷 France

Gestartet Oct 13, 2005 von Guiana Space Centre

Loading…

TLE

AlterndSource: Space-Track

Epoche: Sep 14, 2026, 12:20 UTC

1 28886U 05041C   26257.51450257  .00000039  00000-0  72537-3 0  9992
2 28886   7.3379 166.5966 7191074  79.9488  56.8669  2.24435523171465

Verfolge ARIANE 5 R/B in Echtzeit mit AllMySat

Download on the App Store